Weather History for KAXS - October, 2012

Change the Weather History Date:

Sunday, October 21, 2012

  Actual Average (KLTS) Record (KLTS)
Temperature  
Mean Temperature 78 °F -  
Max Temperature 96 °F 71 °F 95 °F (2012)
Min Temperature 59 °F 48 °F 35 °F (1999)
Cooling Degree Days 12    
Growing Degree Days 28 (Base 50)    
Moisture  
Dew Point 53 °F    
Average Humidity 54    
Maximum Humidity 94    
Minimum Humidity 15    
Precipitation  
Precipitation 0.00 in - - ()
Sea Level Pressure  
Sea Level Pressure 29.74 in    
Wind  
Wind Speed 11 mph (South)    
Max Wind Speed 26 mph    
Max Gust Speed 32 mph    
Visibility 9 miles    
Events      
Averages and records for this station are not official NWS values.
T = Trace of Precipitation, MM = Missing Value Source: NWS Daily Summary

Daily Weather History Graph

Daily Weather History Graph

Search for Another Location

Airport or City:

Trip Planner

Search our weather history database for the weather conditions in past years. The results will help you decide how hot, cold, wet, or windy it might be!

Date:

Astronomy

Oct. 21, 2012 Rise Set
Actual Time 7:48 AM CDT 6:54 PM CDT
Civil Twilight 7:22 AM CDT 7:20 PM CDT
Nautical Twilight 6:53 AM CDT 7:49 PM CDT
Astronomical Twilight 6:24 AM CDT 8:18 PM CDT
Moon 2:05 PM CDT (10/21) No Moon Set
Length of Visible Light 11h 57m
Length of Day
11h 06m
Waxing Crescent, 45% of the Moon is Illuminated
Oct 21
Waxing Crescent
Oct 21
First Quarter
Oct 29
Full
Nov 6
Last Quarter
Nov 13
New

Hourly Weather History & Observations

Time (CDT) Temp. Heat Index Dew Point Humidity Pressure Visibility Wind Dir Wind Speed Gust Speed Precip Events Conditions
12:55 AM 64.4 °F - 51.8 °F 64% 29.71 in 10.0 mi SE 6.9 mph - N/A   Clear
1:15 AM 62.6 °F - 51.8 °F 68% 29.71 in 10.0 mi ESE 6.9 mph - N/A   Clear
1:35 AM 60.8 °F - 53.6 °F 77% 29.72 in 10.0 mi ESE 6.9 mph - N/A   Clear
1:55 AM 62.6 °F - 53.6 °F 72% 29.72 in 10.0 mi ESE 8.1 mph - N/A   Clear
2:15 AM 60.8 °F - 53.6 °F 77% 29.72 in 10.0 mi ESE 8.1 mph - N/A   Clear
2:35 AM 60.8 °F - 53.6 °F 77% 29.72 in 10.0 mi ESE 6.9 mph - N/A   Clear
2:55 AM 59.0 °F - 53.6 °F 82% 29.72 in 10.0 mi ESE 8.1 mph - N/A   Clear
3:15 AM 60.8 °F - 53.6 °F 77% 29.72 in 10.0 mi ESE 6.9 mph - N/A   Clear
3:35 AM 60.8 °F - 53.6 °F 77% 29.72 in 10.0 mi ESE 5.8 mph - N/A   Clear
3:55 AM 60.8 °F - 53.6 °F 77% 29.72 in 10.0 mi SE 6.9 mph - N/A   Clear
4:15 AM 60.8 °F - 53.6 °F 77% 29.72 in 10.0 mi SE 8.1 mph - N/A   Clear
4:35 AM 60.8 °F - 53.6 °F 77% 29.72 in 10.0 mi SE 6.9 mph - N/A   Clear
5:15 AM 60.8 °F - 53.6 °F 77% 29.72 in 10.0 mi SE 8.1 mph - N/A   Clear
5:35 AM 59.0 °F - 53.6 °F 82% 29.73 in 7.0 mi ESE 9.2 mph - N/A   Clear
5:55 AM 59.0 °F - 53.6 °F 82% 29.73 in 7.0 mi ESE 8.1 mph - N/A   Clear
6:35 AM 60.8 °F - 55.4 °F 82% 29.74 in 7.0 mi SE 8.1 mph - N/A   Clear
6:55 AM 59.0 °F - 55.4 °F 88% 29.75 in 7.0 mi SE 8.1 mph - N/A   Clear
7:15 AM 59.0 °F - 55.4 °F 88% 29.75 in 7.0 mi SE 8.1 mph - N/A   Clear
7:35 AM 60.8 °F - 57.2 °F 88% 29.75 in 7.0 mi SSE 8.1 mph - N/A   Clear
7:55 AM 60.8 °F - 59.0 °F 94% 29.75 in 7.0 mi SSE 8.1 mph - N/A   Clear
8:15 AM 62.6 °F - 59.0 °F 88% 29.76 in 7.0 mi SE 9.2 mph - N/A   Clear
8:35 AM 62.6 °F - 59.0 °F 88% 29.77 in 7.0 mi SE 6.9 mph - N/A   Clear
8:55 AM 64.4 °F - 60.8 °F 88% 29.78 in 7.0 mi SE 6.9 mph - N/A   Clear
9:15 AM 68.0 °F - 62.6 °F 83% 29.78 in 7.0 mi SSE 11.5 mph - N/A   Clear
9:35 AM 69.8 °F - 62.6 °F 78% 29.79 in 10.0 mi SSE 9.2 mph - N/A   Clear
9:55 AM 71.6 °F - 62.6 °F 73% 29.79 in 10.0 mi SSE 11.5 mph - N/A   Clear
10:15 AM 73.4 °F - 62.6 °F 69% 29.79 in 10.0 mi South 11.5 mph - N/A   Clear
10:35 AM 75.2 °F - 62.6 °F 65% 29.79 in 10.0 mi South 12.7 mph - N/A   Clear
11:35 AM 82.4 °F 82.9 °F 60.8 °F 48% 29.78 in 10.0 mi SSW 20.7 mph 25.3 mph N/A   Clear
12:35 PM 87.8 °F 86.5 °F 57.2 °F 35% 29.76 in 10.0 mi SSW 19.6 mph - N/A   Clear
12:55 PM 87.8 °F 86.1 °F 55.4 °F 33% 29.75 in 10.0 mi SSW 18.4 mph 25.3 mph N/A   Clear
1:15 PM 89.6 °F 87.3 °F 53.6 °F 29% 29.75 in 10.0 mi SSW 18.4 mph - N/A   Clear
1:35 PM 91.4 °F 89.1 °F 53.6 °F 28% 29.74 in 10.0 mi SSW 21.9 mph - N/A   Clear
1:55 PM 91.4 °F 89.1 °F 53.6 °F 28% 29.73 in 10.0 mi South 20.7 mph 25.3 mph N/A   Clear
2:15 PM 91.4 °F 89.1 °F 53.6 °F 28% 29.72 in 10.0 mi SSW 23.0 mph 26.5 mph N/A   Clear
2:35 PM 95.0 °F - 50.0 °F 22% 29.71 in 10.0 mi SSW 19.6 mph 27.6 mph N/A   Clear
2:55 PM 95.0 °F - 50.0 °F 22% 29.70 in 10.0 mi SW 18.4 mph 25.3 mph N/A   Clear
3:15 PM 95.0 °F - 46.4 °F 19% 29.70 in 10.0 mi SW 24.2 mph 32.2 mph N/A   Clear
3:35 PM 95.0 °F - 44.6 °F 18% 29.69 in 10.0 mi SW 23.0 mph 28.8 mph N/A   Clear
3:55 PM 96.8 °F - 42.8 °F 16% 29.69 in 10.0 mi SW 24.2 mph 28.8 mph N/A   Clear
4:15 PM 96.8 °F - 42.8 °F 16% 29.69 in 10.0 mi SW 26.5 mph 31.1 mph N/A   Clear
4:35 PM 96.8 °F - 41.0 °F 15% 29.70 in 10.0 mi SW 25.3 mph 32.2 mph N/A   Clear
5:35 PM 95.0 °F - 41.0 °F 15% 29.70 in 10.0 mi SW 23.0 mph 26.5 mph N/A   Clear
5:55 PM 95.0 °F - 42.8 °F 16% 29.70 in 10.0 mi SSW 16.1 mph - N/A   Clear
6:15 PM 93.2 °F - 44.6 °F 19% 29.70 in 10.0 mi SSW 18.4 mph 21.9 mph N/A   Clear
6:35 PM 91.4 °F - 44.6 °F 20% 29.70 in 10.0 mi SSW 15.0 mph - N/A   Clear
6:55 PM 87.8 °F - 46.4 °F 24% 29.70 in 7.0 mi South 9.2 mph - N/A   Clear
7:15 PM 86.0 °F - 46.4 °F 25% 29.71 in 10.0 mi South 10.4 mph - N/A   Clear
7:35 PM 82.4 °F - 48.2 °F 30% 29.72 in 10.0 mi South 9.2 mph - N/A   Clear
8:15 PM 78.8 °F - 50.0 °F 36% 29.73 in 10.0 mi SSW 8.1 mph - N/A   Clear
8:35 PM 77.0 °F - 50.0 °F 39% 29.74 in 10.0 mi South 8.1 mph - N/A   Clear
8:55 PM 75.2 °F - 50.0 °F 41% 29.74 in 10.0 mi South 8.1 mph - N/A   Clear
9:15 PM 75.2 °F - 50.0 °F 41% 29.75 in 10.0 mi South 8.1 mph - N/A   Clear
9:55 PM 78.8 °F - 53.6 °F 42% 29.76 in 10.0 mi South 12.7 mph - N/A   Clear
10:15 PM 78.8 °F - 57.2 °F 47% 29.76 in 10.0 mi South 12.7 mph - N/A   Clear
10:35 PM 78.8 °F - 57.2 °F 47% 29.77 in 10.0 mi South 11.5 mph - N/A   Clear
11:15 PM 73.4 °F - 57.2 °F 57% 29.79 in 10.0 mi South 8.1 mph - N/A   Clear
11:55 PM 71.6 °F - 57.2 °F 60% 29.79 in 10.0 mi South 5.8 mph - N/A   Clear